User: anonymous   Login
Location: Fisheating Creek Campgrounds
(26.9333°N, 81.3167°W)
Time: 05:26:06
(UTC-04:00)
Language:

Cosmos 2221 Rocket - Orbit

View from above orbital plane
View from above orbital plane
View from above satellite
View from above satellite

Ground track
Ground track

The orbit data is extracted from the following two-line orbital elements,

1 22237U 92080B   18144.55592216  .00000109  00000-0  11828-4 0  9992
2 22237  82.5104 160.1690 0020107 164.9565 310.4531 14.78354910373874
Epoch (UTC): 24 May 2018 13:20:31
Eccentricity: 0.0020107
inclination: 82.5104°
perigee height: 620 km
apogee height: 648 km
right ascension of ascending node: 160.1690°
argument of perigee: 164.9565°
revolutions per day: 14.78354910
mean anomaly at epoch: 310.4531°
orbit number at epoch: 37387

The dashed part of the orbit path shows where the satellite is in the earth's shadow,  

DLR